Weather History for KCOT - January, 2013

Change the Weather History Date:

Tuesday, January 29, 2013

  Actual Average Record
Temperature  
Mean Temperature 78 °F -  
Max Temperature 93 °F 65 °F 93 °F (2013)
Min Temperature 59 °F 44 °F 26 °F (1997)
Cooling Degree Days 12    
Growing Degree Days 28 (Base 50)    
Moisture  
Dew Point 54 °F    
Average Humidity 56    
Maximum Humidity 83    
Minimum Humidity 10    
Precipitation  
Precipitation 0.00 in - - ()
Sea Level Pressure  
Sea Level Pressure 29.70 in    
Wind  
Wind Speed 11 mph (South)    
Max Wind Speed 24 mph    
Max Gust Speed 38 mph    
Visibility 10 miles    
Events      
Averages and records for this station are not official NWS values.
T = Trace of Precipitation, MM = Missing Value Source: NWS Daily Summary

Daily Weather History Graph

Daily Weather History Graph

Search for Another Location

Airport or City:

Trip Planner

Search our weather history database for the weather conditions in past years. The results will help you decide how hot, cold, wet, or windy it might be!

Date:

Astronomy

Jan. 29, 2013 Rise Set
Actual Time 7:26 AM CST 6:14 PM CST
Civil Twilight 7:01 AM CST 6:39 PM CST
Nautical Twilight 6:32 AM CST 7:07 PM CST
Astronomical Twilight 6:05 AM CST 7:35 PM CST
Moon 8:52 PM CST (1/29) 8:40 AM CST (1/29)
Length of Visible Light 11h 37m
Length of Day
10h 48m
Waning Gibbous, 93% of the Moon is Illuminated
Jan 29
Waning Gibbous
Feb 3
Last Quarter
Feb 10
New
Feb 17
First Quarter
Feb 25
Full

Hourly Weather History & Observations

Time (CST) Temp. Heat Index Dew Point Humidity Pressure Visibility Wind Dir Wind Speed Gust Speed Precip Events Conditions
12:50 AM 71.6 °F - 66.2 °F 83% 29.82 in 10.0 mi SSE 10.4 mph 18.4 mph N/A   Mostly Cloudy
12:53 AM 72.0 °F - 66.0 °F 81% 29.80 in 10.0 mi SSE 12.7 mph 18.4 mph N/A   Mostly Cloudy
1:05 AM 71.6 °F - 66.2 °F 83% 29.80 in 10.0 mi SSE 11.5 mph - N/A   Scattered Clouds
1:53 AM 72.0 °F - 66.0 °F 81% 29.78 in 10.0 mi SSE 11.5 mph 24.2 mph N/A   Mostly Cloudy
2:53 AM 72.0 °F - 66.0 °F 81% 29.77 in 10.0 mi SSE 9.2 mph - N/A   Overcast
3:53 AM 72.0 °F - 66.0 °F 81% 29.77 in 10.0 mi South 10.4 mph - N/A   Overcast
4:53 AM 72.0 °F - 66.0 °F 81% 29.74 in 10.0 mi SSE 9.2 mph - N/A   Overcast
5:40 AM 71.6 °F - 66.2 °F 83% 29.74 in 10.0 mi SSE 9.2 mph 16.1 mph N/A   Scattered Clouds
5:53 AM 72.0 °F - 66.0 °F 81% 29.72 in 10.0 mi SSE 8.1 mph - N/A   Mostly Cloudy
6:53 AM 72.0 °F - 64.9 °F 78% 29.72 in 10.0 mi SSE 8.1 mph - N/A   Overcast
7:27 AM 71.6 °F - 64.4 °F 78% 29.74 in 10.0 mi SSE 8.1 mph - N/A   Scattered Clouds
7:53 AM 71.1 °F - 64.9 °F 81% 29.71 in 9.0 mi SSE 8.1 mph - N/A   Partly Cloudy
8:51 AM 71.6 °F - 64.4 °F 78% 29.73 in 9.0 mi South 8.1 mph - N/A   Mostly Cloudy
8:53 AM 71.1 °F - 64.9 °F 81% 29.71 in 9.0 mi South 9.2 mph - N/A   Mostly Cloudy
9:19 AM 73.4 °F - 64.4 °F 73% 29.73 in 9.0 mi South 11.5 mph 17.3 mph N/A   Scattered Clouds
9:53 AM 73.9 °F - 64.9 °F 73% 29.71 in 9.0 mi South 11.5 mph 24.2 mph N/A   Clear
10:53 AM 75.0 °F - 64.0 °F 69% 29.70 in 9.0 mi South 12.7 mph 23.0 mph N/A   Clear
11:53 AM 82.9 °F 83.7 °F 62.1 °F 49% 29.67 in 10.0 mi SSW 11.5 mph - N/A   Clear
12:53 PM 84.9 °F 83.9 °F 57.0 °F 38% 29.62 in 10.0 mi SW 10.4 mph 16.1 mph N/A   Clear
1:53 PM 87.1 °F 85.3 °F 55.0 °F 33% 29.57 in 10.0 mi South 12.7 mph 21.9 mph N/A   Clear
2:53 PM 91.0 °F - 50.0 °F 24% 29.53 in 10.0 mi South 12.7 mph 20.7 mph N/A   Clear
3:53 PM 93.0 °F - 28.9 °F 10% 29.51 in 10.0 mi SW 16.1 mph 31.1 mph N/A   Clear
4:53 PM 91.0 °F - 27.0 °F 10% 29.51 in 10.0 mi SW 15.0 mph 29.9 mph N/A   Clear
5:53 PM 81.0 °F - 43.0 °F 26% 29.55 in 8.0 mi NW 18.4 mph 34.5 mph N/A   Clear
6:00 PM 78.8 °F - 44.6 °F 30% 29.58 in 8.0 mi NNW 24.2 mph 38.0 mph N/A   Clear
6:53 PM 73.0 °F - 36.0 °F 26% 29.62 in 10.0 mi NNW 17.3 mph 34.5 mph N/A   Clear
7:53 PM 70.0 °F - 34.0 °F 27% 29.68 in 10.0 mi NNW 11.5 mph 17.3 mph N/A   Clear
8:53 PM 66.9 °F - 33.1 °F 28% 29.71 in 10.0 mi North 6.9 mph - N/A   Clear
9:53 PM 64.0 °F - 32.0 °F 30% 29.73 in 10.0 mi NW 4.6 mph - N/A   Clear
10:53 PM 62.1 °F - 32.0 °F 32% 29.79 in 10.0 mi North 6.9 mph - N/A   Clear
11:53 PM 59.0 °F - 30.9 °F 35% 29.81 in 10.0 mi North 8.1 mph - N/A   Clear